Home   Weather   Terrebonne   Past weeks

Flag for Canada Past Weather in Terrebonne, Quebec, Canada — Yesterday and Last 2 Weeks

Now
29 °F

Chilly.


Feels Like: 24 °F
Forecast: 19 / 27 °F
Wind: 5 mph from Northwest

Location: L'Assomption Airport

Current Time: Dec 8, 2016 at 11:12:06 pm

Latest Report: Dec 8, 2016 at 10:00 pm


Visibility: N/A

Pressure: 29.75 "Hg

Humidity: 92%

Dew Point: 27 °F

Location of TerrebonneLocation

Past Weather in Terrebonne — Graph

°F

Terrebonne Temperature Yesterday

Maximum temperature yesterday: 35 °F (at 9:00 pm)
Minimum temperature yesterday: 26 °F (at 8:00 am)
Average temperature yesterday: 30 °F

High & Low Weather Summary for the Past Weeks

 TemperatureHumidityPressure
High46 °F (Dec 1, 10:00 am)100% (Nov 24, 11:00 pm)30.39 "Hg (Nov 24, 11:00 pm)
Low19 °F (Dec 5, 7:00 pm)58% (Dec 4, 2:00 pm)29.40 "Hg (Dec 1, 7:00 am)
Average32 °F89%30.01 "Hg
* Reported Nov 23 10:00 pm — Dec 8 10:00 pm, Terrebonne, Weather by CustomWeather, © 2016

Note: Actual official high and low records may vary slightly from our data, if they occured in-between our weather recording intervals... More about our weather records

Advertising

Terrebonne Weather History for the Previous 24 Hours

Scroll right to see more
 ConditionsComfort  
Time TempWeatherWind HumidityBarometerVisibility
10:00 pm
Thu, Dec 8
29 °FChilly.5 mph92%29.75 "HgN/A
9:00 pm29 °FChilly.8 mph92%29.75 "HgN/A
8:00 pm30 °FChilly.12 mph87%29.75 "HgN/A
7:00 pm30 °FChilly.8 mph89%29.75 "HgN/A
6:00 pm32 °FChilly.9 mph80%29.75 "HgN/A
5:00 pm32 °FChilly.12 mph76%29.74 "HgN/A
4:00 pm32 °FChilly.9 mph75%29.73 "HgN/A
3:00 pm34 °FChilly.12 mph71%29.73 "HgN/A
2:00 pm35 °FChilly.12 mph70%29.73 "HgN/A
1:00 pm34 °FChilly.12 mph79%29.74 "HgN/A
12:00 pm33 °FChilly.12 mph82%29.75 "HgN/A
11:00 am33 °FChilly.12 mph83%29.77 "HgN/A
10:00 am34 °FChilly.13 mph74%29.79 "HgN/A
9:00 am32 °FChilly.9 mph84%29.80 "HgN/A
8:00 am31 °FChilly.9 mph84%29.80 "HgN/A
7:00 am32 °FChilly.10 mph91%29.81 "HgN/A
6:00 am31 °FChilly.6 mph85%29.82 "HgN/A
5:00 am27 °FChilly.3 mph94%29.83 "HgN/A
4:00 am28 °FChilly.3 mph85%29.86 "HgN/A
3:00 am30 °FChilly.3 mph80%29.87 "HgN/A
2:00 am33 °FChilly.7 mph75%29.89 "HgN/A
1:00 am33 °FChilly.8 mph76%29.90 "HgN/A
12:00 am34 °FChilly.9 mph76%29.91 "HgN/A
11:00 pm
Wed, Dec 7
34 °FChilly.8 mph76%29.93 "HgN/A
Weather by CustomWeather, © 2016

See weather overviewHow to use our weather pages